Bicycle Lake Army Air Field
KBYS : now visible

Airfield :











YOU CAN JOIN US ON...

 
LOGIN :

Register | Disclaimer

   EN    FR    IT 

 









Legend :    VFR   Marginal VFR   IFR   Intensive IFR   Very Intensive IFR
Visi :
Ceiling :
>= 8 km
>= 3000ft
5 to 8 km
1000 to 3000 ft
1500m to 5 km
500 to 1000 ft
800 to 1500m
200 to 500 ft
< 800m
< 200 ft
Symbols :   Thunderstorms  Fog  Heavy snow  Heavy precipitations  Wind > 20 kt






- Airport Elevation : 2350 ft


KBYS - Bicycle Lake Army Air Field

CURRENT METAR :
  • 260458Z AUTO 27007KT 10SM BKN038 OVC049 04/M07 A2955 RMK AO2 SLP007 T00411066 $

EXPIRED METARs :
  • 260358Z AUTO 02003KT 10SM OVC035 03/M03 A2954 RMK AO2 UPB43E52 SLP006 P0000 T00311034 $
  • 260352Z AUTO 32005KT 10SM OVC035 03/M03 A2954 RMK AO2 UPB43E52 SLP006
  • 260258Z AUTO 00000KT 10SM SCT024 OVC041 02/M01 A2954 RMK AO2 UPE39 SLP007 P0000 60000 50013 $
  • 260239Z AUTO 23006KT 6SM HZ OVC027 02/M01 A2955 RMK AO2 UPE39 SLP009
  • 260228Z AUTO 24013KT 5SM UP OVC029 02/M01 A2955 RMK AO2 SLP009 $

Expired Forecast.
KZLA FIR / North America



MET'MAP, your aeronautical weather chart ! - Copyright ORBIFLY December 2007 - Disclaimer

ORBIFLY MET'MAP TEAM :

Programming & Development : Alexandra Zaïnal
Concept & original design : Baudouin d'Aumeries
Assistance for programming : Marc-Olivier Méhu
Technical & hardware support : Manuel Goepfert

Contact : metmap@orbifly.com




SOURCES & CREDITS :

   NOAA       Earth
Advisory